Observer details:
033 Karl Schwarzschild Observatory, Tautenburg.  Observers S. Melnikov, C.
    Hoegner, F. Ludwig, M. Hartmann, B. Stecklum.  Measurer B. Stecklum.
    1.34-m f/3 Schmidt + CCD.
104 San Marcello Pistoiese.  Observers P. Bacci, M. Maestripieri.  Measurers
    P. Bacci, L. Tesi, G. Fagioli.  0.60-m F4 Reflector + CCD.
106 Crni Vrh.  Observer H. Mikuz.  0.60-m f/3.3 reflector + CMO.
246 Klet Observatory-KLENOT.  Observers M. Tichy, J. Ticha, M. Janda, M.
    Honkova.  Measurer M. Tichy.  1.06-m f/2.7 Reflector + 2048x2048 CCD.
474 Mount John Observatory, Lake Tekapo.  Observers A. C. Gilmore, P. M.
    Kilmartin.  Measurer P. M. Kilmartin.  1.0-m f/7.7 reflector + CCD.
595 Farra d'Isonzo.  Observers G. Panterotto, E. Pettarin.  Measurer E.
    Pettarin.  0.61-m f/4.5 reflector + CCD.
A17 Guidestar Observatory, Weinheim.  Observers M. Emmerich, S. Melchert.
    0.36-m f/6.0 Schmidt-Cassegrain + CCD.
B72 Soerth.  Observer B. Koch.  0.36-m f/7.6 reflector + CMO.
E23 Arcadia.  Observer A. Hidas.  0.35-m f/1.9 reflector + CCD.
F51 Pan-STARRS 1, Haleakala.  Observers J. Bulger, K. Chambers, T. Lowe, P.
    Minguez, A. Schultz, I. Smith.  Measurers S. Chastel, J. Fairlamb, M.
    Huber, Y. Ramanjooloo, R. Wainscoat, R. Weryk.  1.8-m Ritchey-Chretien +
    CCD.
F52 Pan-STARRS 2, Haleakala.  Observers J. Bulger, T. Lowe, P. Minguez, A.
    Schultz, I. Smith.  Measurers K. Chambers, T. de Boer, J. Bulger, J.
    Fairlamb, H. Gao, M. Huber, C.-C. Lin, T. Lowe, E. Magnier, P. Minguez, Y.
    Ramanjooloo, A. Schultz, I. Smith, R. Wainscoat, R. Weryk.  1.8-m Ritchey-
    Chretien + CCD.
G02 KYSUCE Observatory, Kysucke Nove Mesto.  Observer M. Urbanik.  0.40-m
    f/6.8 Corrected Dall-Kirkham + CCD.
G34 Oberfrauendorf.  Observer T. Felber.  0.35-m f/6.3 Schmidt-Cassegrain +
    CCD.
H21 Astronomical Research Observatory, Westfield.  Observer R. Holmes.
    Measurers T. Linder, R. Holmes, L. Horn.  0.76-m f/3.0 astrograph + CCD.
J95 Great Shefford.  Observer P. Birtwhistle.  0.41-m f/6.3 Schmidt-Cassegrain
    + CCD.
K74 Muensterschwarzach Observatory, Schwarzach.  Observer C. Gerhard.  0.30-m
    f/3.75 reflector + CMO.
K83 Beppe Forti Astronomical Observatory, Montelupo.  Observers M. Tombelli,
    A. Mazzanti, M. Lombardo, F. Cheli, G. Interrante, A. Squilloni, M. Iozzi.
    Measurers M. Tombelli, F. Bernardi.  0.40-m f/8 Ritchey-Chretien + CCD.
K87 Dettelbach Vineyard Observatory.  Observer B. Haeusler.  0.30-m f/8.0
    0.30-m Schmidt-Cassegrain + CMOS + CMO.
L90 ABObservatory, Rosarno.  Observer A. Brosio.  0.30-m f/4.0 reflector +
    CCD.
M21 Schiaparelli Southern Observatory, Hakos.  Observers A. Aletti, F.
    Bellini, L. Buzzi, G. Galli.  Measurer L. Buzzi.  0.36-m f/8.4 reflector +
    CCD.
U52 Shasta Valley Observatory, Grenada.  Observers J. E. Rogers, B. Haeusler.
    Measurers J. E. Rogers, D. Parrott.  0.30-m f/5.2 0.30-m Helin Telescope +
    CCD.

Orbital elements:
2023 RF13                                                Earth MOID = 0.0246 AU
Epoch 2023 Sept. 13.0 TT = JDT 2460200.5                Veres                   
M 358.59296              (2000.0)            P               Q                  
n   0.27506182     Peri.   10.34132     +0.99449971     +0.10434172             
a   2.3416169      Node   343.66106     -0.09826238     +0.89932218             
e   0.5601902      Incl.    1.85732     -0.03626059     +0.42465566             
P   3.58           H   25.11          G   0.15           U   8                  
Residuals in seconds of arc
230915 F52  0.1+  0.0     230915 A17  0.0   0.4-    230915 K74  0.2-  0.2-
230915 F52  0.2+  0.0     230915 106  0.6+  0.4+    230915 B72  0.1+  0.1+
230915 F52  0.0   0.1-    230915 G02  0.0   0.9-    230915 G34  0.3+  0.4+
230915 F52  0.1-  0.2-    230915 106  0.0   0.2-    230915 J95  0.3-  0.2-
230915 F51  0.0   0.0     230915 033  0.2-  0.4+    230915 K74  0.1-  0.0
230915 F51  0.0   0.0     230915 033  0.3-  0.2-    230915 K74  0.0   0.0
230915 474  0.1-  0.1+    230915 033  0.1+  0.0     230915 G34  1.0-  0.0
230915 474  0.0   0.2-    230915 106  0.6+  0.2+    230915 K74  0.1-  0.3+
230915 474  0.0   0.1-    230915 A17  0.2+  0.2+    230915 G34  0.7-  0.8+
230915 474  0.2-  0.1+    230915 K87  0.2+  0.1-    230915 L90  4.5+  6.3+
230915 474  0.1-  0.2+    230915 K87  0.4-  0.8-    230915 L90  2.0+  2.0+
230915 E23  0.3+  0.4+    230915 104  0.2-  0.2-    230915 L90  1.4+  0.3-
230915 E23  0.0   0.5+    230915 K83  0.7-  0.3+    230916 H21  0.1+  0.0
230915 E23  0.3+  0.6+    230915 104  0.0   0.0     230916 H21  0.0   0.0
230915 M21  0.4+  0.2+    230915 595  0.6-  0.0     230916 H21  0.1+  0.2+
230915 M21  0.0   0.5+    230915 B72  0.2+  0.1+    230916 H21  0.1+  0.2+
230915 A17  0.2+  0.4-    230915 104  0.3+  0.0     230916 U52  0.0   0.6-
230915 246  0.2+  0.3-    230915 K83  0.0   0.5+    230916 U52  0.5+  0.5-
230915 246  1.1+  0.3-    230915 J95  0.1-  0.3-    230916 U52  0.9-  0.8-
230915 246  0.2-  0.1-    230915 595  0.7-  0.1+    230916 246  0.2-  0.6-
230915 G02  0.8+  0.4-    230915 B72  0.3+  0.3-    230916 246  0.1-  0.4-
230915 246  0.2-  0.2-    230915 K74  0.3-  0.4-    230916 246  0.4-  0.5-
230915 246  0.2-  0.0     230915 J95  0.1-  0.2-    230916 246  0.2-  0.1-
230915 106  0.1+  0.2+    230915 595  0.0   0.2+    230916 246  0.6-  0.3-
230915 G02  0.4+  0.7-    230915 J95  0.3-  0.2-    230916 246  0.2-  0.5-

Ephemeris:
2023 RF13                a,e,i = 2.34, 0.56, 2                   q = 1.0299
Date    TT    R. A. (2000) Decl.     Delta      r    Elong.  Phase     V
2023 08 17    18 13 02.5 -29 48 49   0.1395  1.1058   129.0    45.4    22.8
...
2023 09 01    18 34 52.7 -27 10 17   0.08186 1.0523   119.7    56.4    21.8
...
2023 09 09    19 18 26.9 -22 26 53   0.05222 1.0363   122.3    55.2    20.8
...
2023 09 15    20 38 03.5 -11 37 02   0.03351 1.0306   136.9    41.9    19.4
2023 09 16    20 58 48.8 -08 22 26   0.03122 1.0302   141.4    37.6    19.2
2023 09 17    21 22 13.9 -04 35 00   0.02933 1.0300   146.5    32.6    18.9
...
2023 09 23    00 14 19.4 +21 08 44   0.03009 1.0317   158.2    21.1    18.6
...
2023 10 01    02 34 32.2 +31 27 41   0.05420 1.0426   138.5    39.5    20.4
...
2023 10 16    03 38 45.4 +31 43 41   0.1140  1.0877   140.6    35.5    22.0

M. P. C. Staff               (C) Copyright 2023 MPC           M.P.E.C. 2023-S12





More information about the Iaude mailing list